Temperature
20 18 16 15 15 15 15 14 14 14 14 14 14 14 13 13 13 13 13 13 13 13 13 13 13 13 13 13 12 12 12 12 12 13 13 14 14 13 12 12 12 12 12
21 19 16 15 15 15 15 14 14 14 14 14 14 13 13 13 13 13 13 13 13 13 12 12 12 12 12 12 12 12 12 12 12 13 13 13 13 13 12 12 11 11 11
21 19 17 16 15 15 15 14 14 14 14 14 13 13 12 12 12 12 12 12 12 12 12 12 12 12 12 12 12 12 12 12 12 13 13 13 13 12 12 12 11 11 11
20 20 18 16 16 15 15 14 14 14 14 13 13 12 12 12 12 12 12 12 12 13 13 13 13 12 12 13 13 13 13 13 13 13 13 13 13 12 12 11 11 11 11
21 20 19 17 16 15 15 14 14 14 14 13 13 12 12 12 12 12 12 12 13 13 14 14 14 14 14 14 14 14 14 14 14 13 14 13 13 13 12 12 11 11 11
21 20 19 17 16 15 15 14 14 14 14 14 13 12 12 12 12 12 12 12 13 13 14 14 14 14 14 14 14 14 14 14 13 13 13 14 14 13 13 13 12 11 11
20 19 19 17 16 15 15 14 14 15 15 14 13 12 12 12 12 12 12 12 13 13 14 14 14 14 14 14 14 13 13 13 13 13 13 13 13 13 13 13 12 11 11
19 19 19 18 16 15 15 14 14 14 15 14 14 13 12 12 12 13 12 12 13 13 13 13 13 13 13 13 13 13 13 13 13 13 13 12 12 12 12 12 12 12 12
18 19 19 18 17 16 15 14 14 14 14 14 14 13 13 12 12 13 12 13 13 13 13 13 13 13 13 13 13 13 13 12 12 12 12 12 12 12 12 12 12 12 12
18 18 18 18 17 16 15 15 14 14 14 14 14 14 13 13 13 13 13 13 13 13 13 13 13 13 13 13 13 12 12 12 12 12 12 12 12 12 12 12 12 12 12
18 18 18 18 18 17 16 15 14 14 13 14 14 14 14 13 13 13 13 13 13 13 12 12 12 12 12 12 12 12 12 12 12 12 12 12 12 12 12 12 12 12 12
19 19 18 18 18 17 16 15 15 14 14 13 14 14 14 13 13 13 13 13 13 13 12 12 12 12 12 12 12 12 12 12 12 12 12 12 12 12 12 12 12 12 12
20 19 19 18 18 17 16 16 15 15 14 14 13 13 13 13 13 13 13 12 12 12 12 12 12 12 12 12 12 12 12 12 12 12 12 12 12 12 12 11 11 12 11
20 20 19 19 18 17 17 16 15 15 14 14 13 13 13 13 12 12 12 12 12 12 12 12 12 12 12 12 12 12 12 12 12 12 12 12 11 11 11 11 11 11 11
20 20 19 19 18 18 17 16 15 15 14 14 13 13 12 12 12 12 12 12 12 12 11 11 11 12 12 12 12 12 12 12 12 12 11 11 11 11 10 10 10 10 10
20 20 20 19 19 18 17 16 15 14 14 13 13 13 12 12 12 12 12 12 11 11 11 11 11 12 12 12 12 11 11 11 11 11 11 10 10 10 9 9 9 9 9
20 20 20 20 19 18 17 16 15 14 14 13 13 13 13 12 12 12 12 11 11 11 11 11 11 11 11 11 11 11 11 10 10 10 10 9 9 9 8 8 9 9 9
20 20 20 20 19 19 17 16 15 14 14 13 13 13 13 12 12 12 12 11 11 11 11 11 11 11 11 11 11 10 10 10 9 9 9 8 8 8 8 8 8 9 9
19 20 20 19 19 19 17 16 15 14 14 14 13 13 13 12 12 12 12 11 11 11 11 11 11 11 10 10 10 9 9 9 9 8 8 8 8 8 8 8 8 8 8
19 19 19 19 19 18 17 16 15 14 14 14 13 13 13 12 12 12 12 11 11 11 11 11 10 10 9 9 8 9 9 9 8 8 7 7 7 7 7 7 7 7 7
18 18 19 18 18 17 16 16 15 14 14 13 13 13 12 12 12 12 11 11 11 11 11 10 9 9 8 8 8 8 8 8 8 7 7 7 7 7 7 6 6 6 6
18 18 18 17 17 16 16 15 15 14 13 13 13 12 12 11 11 11 11 11 11 10 10 9 9 8 7 6 6 5 5 6 6 6 6 6 5 5 5 5 5 5 5
17 17 17 17 16 15 15 14 14 13 13 12 12 12 11 11 11 11 11 10 10 10 9 8 8 7 6 5 5 4 3 2 2 3 4 4 3 3 4 4 4 4 4
17 17 16 16 15 15 14 14 14 13 13 12 12 11 11 11 11 10 10 10 9 9 8 7 6 6 5 4 4 3 2 1 -0 -0 2 2 2 3 3 3 3 3 3
16 16 16 15 14 14 13 13 13 13 13 12 11 11 11 10 10 10 9 9 9 8 7 6 5 5 4 4 3 2 2 1 -1 -2 -2 -0 1 2 2 2 2 2 1
15 15 15 14 13 13 12 13 13 13 12 12 11 11 10 10 9 9 9 8 8 7 6 5 5 4 3 3 2 2 1 -0 -1 -3 -4 -4 -4 -1 -0 0 0 0 -0
Wind_Speed
5 7 16 18 18 17 15 13 11 9 8 8 9 11 12 11 10 8 7 6 5 5 5 4 5 5 6 7 8 7 6 6 6 6 7 6 6 6 5 2 1 3 4
8 12 17 18 18 17 15 13 11 9 7 7 9 11 11 10 8 7 6 5 4 4 5 7 8 8 8 8 7 6 4 4 5 5 7 7 8 7 6 5 4 3 4
9 14 16 18 18 17 15 13 11 9 8 8 9 10 10 9 7 6 5 4 4 4 4 5 6 7 8 7 6 4 3 3 4 5 6 7 8 8 8 6 6 5 6
10 14 15 18 18 17 15 14 11 9 8 8 9 9 9 8 7 6 5 4 4 4 4 4 4 4 5 4 4 3 4 4 4 4 4 5 6 8 8 6 7 7 7
9 12 15 19 18 17 16 14 12 10 9 8 8 9 8 8 7 6 5 4 4 4 4 3 3 3 3 3 3 3 3 4 3 3 4 5 6 8 9 8 7 7 7
9 11 15 18 18 17 16 14 12 11 9 9 8 8 7 6 7 6 6 5 4 3 2 2 1 1 1 2 3 4 4 4 3 4 5 6 7 9 10 9 9 9 9
9 9 13 17 17 17 16 15 13 11 10 9 8 8 6 5 4 6 7 7 5 3 1 1 2 3 4 5 5 6 6 6 5 5 7 8 9 10 10 10 11 11 11
9 8 12 17 16 16 16 15 13 12 10 9 9 8 7 5 4 4 8 8 5 4 2 3 5 6 7 7 8 9 9 9 8 7 8 10 11 11 11 11 11 13 13
7 6 8 12 14 16 16 15 14 12 11 10 9 8 5 3 3 2 7 7 5 4 4 6 7 8 8 9 9 10 10 10 9 8 9 10 11 12 12 12 13 14 15
6 7 6 8 11 12 14 15 15 13 11 10 8 7 5 3 1 1 3 5 5 5 6 7 8 9 9 9 10 10 10 9 7 8 9 10 12 13 14 14 14 14 15
6 6 7 6 8 10 12 14 15 13 12 10 8 7 6 2 0 1 2 4 5 6 7 8 9 9 9 9 9 9 9 7 7 7 8 10 11 12 13 13 13 13 13
10 9 8 8 7 8 10 11 11 11 11 9 7 6 5 3 2 2 4 4 5 5 6 7 7 8 8 8 9 10 9 9 8 8 9 10 10 10 11 12 13 13 13
9 9 11 11 8 8 6 7 8 9 9 8 8 7 5 3 1 1 2 3 3 4 4 5 6 8 9 9 9 10 10 9 9 8 9 10 9 9 9 11 12 14 15
8 9 10 11 11 10 7 6 7 6 6 6 8 8 6 3 1 2 2 3 3 4 4 5 6 8 9 10 9 8 9 8 8 8 8 11 12 13 14 15 16 17 17
9 10 11 11 12 11 9 6 6 5 6 7 8 8 7 4 3 3 4 5 6 6 6 5 6 6 6 7 7 7 6 8 8 8 9 13 16 17 17 17 17 17 16
11 11 10 13 13 12 11 8 7 6 7 7 7 8 9 7 6 5 4 5 6 8 8 7 6 5 4 4 5 6 6 7 7 8 10 13 16 18 18 18 17 17 16
10 9 10 12 13 13 12 10 6 6 7 5 6 9 11 11 10 8 5 5 6 8 8 7 6 6 5 5 6 5 5 6 6 7 9 11 13 16 17 18 18 17 17
9 7 8 10 12 13 10 9 6 6 7 6 8 10 12 13 13 9 6 5 7 8 7 5 5 5 6 6 6 5 4 4 4 5 7 9 11 12 15 18 19 18 17
8 7 7 8 11 11 10 9 8 7 7 7 9 10 12 13 13 11 7 6 9 7 5 5 6 5 5 7 6 5 4 4 2 3 4 6 8 10 12 14 18 18 18
6 6 7 8 10 12 11 10 9 9 8 7 8 10 13 13 14 13 9 8 8 6 6 5 6 6 5 5 6 7 5 3 2 2 2 3 4 7 11 13 15 17 17
5 6 8 10 11 13 11 10 9 8 8 7 7 11 13 14 14 12 8 6 6 7 7 6 4 6 6 6 5 6 5 3 3 0 1 1 2 7 14 16 17 17 14
6 7 8 11 11 10 9 7 6 7 7 7 7 10 12 13 14 12 8 7 6 7 8 8 6 3 5 6 4 4 5 6 5 4 4 3 5 8 10 17 18 16 16
8 9 9 10 10 10 11 12 12 8 6 6 7 7 8 13 14 13 11 8 6 7 6 7 6 5 4 4 4 4 3 4 5 5 5 5 5 6 6 11 14 16 19
9 8 9 10 11 12 13 16 18 11 8 6 7 8 8 11 13 14 12 10 7 6 7 6 6 4 3 3 3 2 1 3 3 6 5 4 5 8 8 10 11 16 18
9 9 10 11 11 11 10 14 15 12 10 11 10 11 9 8 10 12 12 9 6 5 6 6 5 4 3 2 1 2 2 2 3 4 7 6 7 6 7 10 9 10 14
9 10 11 12 11 9 10 11 15 18 18 15 12 10 8 6 6 8 10 9 7 5 5 5 4 4 2 1 0 1 2 2 2 4 6 12 13 8 10 10 8 6 12
Wind_Direction
212 191 176 158 152 148 145 142 138 136 140 147 151 146 137 129 118 108 99 90 77 56 49 57 67 94 110 116 107 98 84 63 41 28 19 12 359 342 328 317 311 312 305
167 174 175 159 154 151 149 145 141 138 141 149 151 146 137 126 118 107 99 93 79 60 51 55 65 72 77 83 85 80 71 48 23 17 24 21 3 345 322 288 272 275 291
150 167 171 159 156 154 152 148 145 143 143 147 150 143 135 127 121 115 109 94 73 62 54 52 56 59 60 59 57 47 26 5 359 12 23 12 357 345 326 281 255 263 275
155 163 163 161 159 157 155 153 152 151 150 151 150 146 140 137 137 135 124 97 74 72 70 64 58 54 50 40 27 6 348 342 0 10 8 354 344 333 326 296 249 250 268
152 159 163 163 163 161 159 158 158 158 157 157 154 152 150 155 160 159 150 120 95 92 92 85 72 56 41 25 3 340 329 328 336 341 329 327 324 317 314 301 279 261 268
149 157 165 166 167 166 164 164 165 165 165 166 167 167 171 182 190 185 172 155 140 130 117 104 88 14 328 317 309 306 308 312 310 297 300 302 303 304 298 291 288 279 267
154 160 170 170 172 171 169 169 172 173 174 175 179 185 194 212 218 209 185 176 174 178 188 318 327 319 310 304 303 306 314 321 306 284 285 287 288 295 291 282 280 279 276
162 165 174 178 178 177 175 174 177 180 182 185 190 199 208 220 260 231 187 184 195 215 260 305 322 324 320 315 312 316 321 324 314 298 287 285 289 297 293 284 277 276 274
165 167 176 183 183 181 177 177 182 186 190 193 196 203 203 211 287 223 183 195 217 248 284 309 321 323 321 319 318 319 318 316 311 298 294 290 295 299 295 287 280 273 269
177 183 181 184 181 179 178 180 184 188 191 195 196 189 176 184 303 139 183 215 243 271 296 313 322 325 328 327 326 327 327 325 321 313 307 306 311 310 305 301 297 290 282
196 198 190 184 180 176 177 183 186 189 191 191 189 180 174 182 274 344 301 273 274 288 307 320 333 343 350 350 350 352 355 355 345 335 328 329 331 326 324 325 327 323 316
204 201 197 193 184 176 183 182 182 184 187 184 178 177 178 188 231 296 310 307 307 320 336 344 355 11 16 13 14 20 21 17 15 360 352 352 349 343 343 347 349 350 349
208 201 199 198 188 182 180 174 176 177 179 181 180 181 179 179 211 339 5 12 22 27 25 20 30 34 36 32 30 31 30 29 20 9 3 8 10 9 12 17 22 24 26
210 209 201 196 193 191 183 176 175 173 174 179 184 183 172 164 142 86 68 56 57 62 62 56 54 49 45 39 35 33 30 22 13 9 16 32 41 43 44 42 37 32 29
220 215 202 193 194 191 185 180 178 178 179 183 180 183 178 159 138 109 89 77 68 70 69 63 58 51 40 31 28 29 25 14 13 24 35 46 50 47 45 39 32 26 22
231 222 201 196 193 186 187 185 181 177 173 171 174 177 170 151 132 112 94 77 67 68 70 68 63 52 38 22 18 20 23 16 22 40 52 53 53 48 42 35 27 21 15
237 222 201 197 188 185 185 181 171 164 159 157 156 153 144 135 125 113 98 81 70 74 74 65 58 48 34 18 8 9 23 20 28 46 57 61 56 46 39 31 21 14 7
232 213 201 191 183 181 174 161 147 142 139 135 134 128 123 121 120 111 100 86 77 72 67 62 40 38 25 11 351 345 7 9 22 47 57 64 64 50 36 27 17 7 359
216 198 184 174 169 162 145 131 121 116 111 115 116 113 112 113 114 107 97 88 82 68 51 57 48 40 24 360 338 333 352 350 359 53 54 63 64 52 36 22 13 1 352
192 172 157 147 144 137 128 118 110 101 97 96 101 106 109 110 109 103 94 85 80 70 54 50 55 43 31 353 336 331 333 342 3 64 46 53 52 38 28 17 5 349 341
170 156 147 143 144 143 141 136 128 117 109 96 93 99 105 107 105 100 97 84 76 75 64 50 53 40 23 3 3 339 336 355 354 112 19 336 1 14 15 5 348 333 324
177 163 151 151 152 150 144 128 118 117 106 96 95 93 99 103 101 98 95 91 82 82 65 51 49 52 25 26 33 6 346 337 342 342 340 346 5 10 1 342 326 317 313
183 172 160 155 147 137 130 121 116 107 104 102 100 93 90 97 96 98 95 91 81 81 76 64 56 66 34 15 41 58 15 310 309 311 318 337 353 353 334 316 309 308 307
183 163 150 146 142 142 142 143 143 143 136 128 125 113 98 93 94 94 92 88 82 78 75 67 65 67 70 31 5 31 230 238 288 309 302 308 323 317 303 309 305 298 296
159 151 144 138 140 145 146 147 138 127 121 124 120 111 100 87 87 89 88 85 79 76 76 69 65 63 77 87 20 327 317 294 246 269 294 305 306 287 294 296 292 290 290
146 143 143 141 140 138 136 138 137 134 135 134 128 119 107 95 84 82 84 81 79 75 72 69 66 62 67 81 143 243 240 270 286 277 287 306 307 300 292 285 282 282 292
Height
1498 1499 1501 1504 1505 1507 1508 1510 1511 1512 1513 1513 1513 1514 1515 1515 1516 1516 1516 1516 1516 1516 1517 1517 1518 1519 1520 1521 1521 1522 1522 1522 1522 1522 1521 1520 1520 1521 1522 1522 1522 1523 1523
1498 1499 1501 1503 1505 1506 1508 1509 1510 1511 1512 1512 1513 1514 1515 1515 1516 1516 1516 1516 1516 1516 1516 1517 1518 1519 1520 1520 1520 1521 1521 1521 1520 1520 1519 1519 1519 1520 1521 1521 1521 1522 1523
1497 1498 1500 1502 1504 1506 1507 1509 1510 1511 1511 1512 1513 1514 1515 1516 1516 1517 1516 1516 1516 1515 1516 1516 1517 1518 1518 1519 1519 1519 1519 1519 1519 1519 1518 1518 1519 1519 1520 1520 1521 1521 1522
1497 1498 1500 1502 1504 1506 1507 1509 1510 1511 1511 1512 1513 1514 1515 1516 1517 1517 1517 1517 1516 1515 1515 1516 1516 1517 1518 1518 1518 1518 1518 1518 1518 1518 1518 1517 1518 1518 1519 1519 1520 1521 1521
1497 1498 1500 1502 1504 1506 1508 1509 1510 1511 1511 1512 1513 1514 1515 1516 1517 1517 1518 1517 1517 1516 1516 1516 1516 1517 1517 1518 1518 1518 1518 1518 1518 1518 1517 1517 1517 1517 1518 1518 1518 1519 1519
1497 1498 1500 1502 1504 1506 1508 1509 1510 1511 1511 1512 1513 1514 1515 1516 1517 1518 1518 1518 1518 1517 1517 1517 1517 1517 1518 1518 1518 1518 1518 1518 1518 1517 1517 1516 1516 1516 1516 1516 1516 1517 1517
1497 1498 1500 1502 1504 1506 1508 1509 1510 1511 1511 1512 1513 1514 1515 1516 1517 1518 1519 1519 1518 1518 1518 1518 1518 1518 1518 1518 1518 1518 1518 1518 1517 1517 1516 1516 1515 1515 1514 1514 1514 1514 1515
1498 1499 1500 1502 1504 1506 1508 1509 1510 1511 1512 1512 1512 1513 1515 1516 1517 1518 1519 1519 1519 1519 1519 1519 1519 1519 1519 1518 1518 1517 1517 1517 1516 1516 1515 1515 1514 1513 1513 1512 1512 1512 1512
1498 1499 1500 1501 1503 1505 1507 1509 1510 1511 1512 1512 1513 1513 1515 1516 1517 1518 1519 1519 1519 1519 1519 1519 1519 1519 1518 1518 1518 1517 1516 1516 1515 1515 1514 1513 1512 1512 1511 1511 1511 1510 1510
1497 1499 1500 1501 1503 1504 1506 1508 1510 1511 1512 1512 1512 1513 1514 1515 1517 1518 1519 1519 1519 1519 1519 1519 1519 1518 1518 1518 1517 1516 1516 1515 1514 1513 1513 1512 1511 1510 1509 1509 1509 1508 1507
1496 1497 1499 1500 1502 1503 1505 1507 1509 1510 1511 1512 1512 1513 1514 1515 1516 1517 1518 1518 1519 1519 1519 1519 1518 1518 1518 1517 1516 1516 1515 1514 1512 1512 1510 1509 1508 1507 1507 1506 1505 1504 1503
1494 1496 1497 1499 1501 1502 1504 1505 1507 1509 1510 1511 1512 1513 1514 1515 1516 1517 1517 1518 1518 1518 1518 1518 1518 1517 1517 1516 1516 1514 1513 1512 1510 1509 1508 1507 1506 1505 1504 1503 1502 1501 1500
1493 1494 1496 1497 1499 1500 1502 1504 1506 1507 1509 1510 1511 1512 1514 1515 1516 1516 1517 1517 1517 1517 1517 1517 1517 1516 1516 1515 1514 1512 1511 1509 1508 1507 1505 1504 1503 1501 1500 1499 1498 1497 1496
1491 1492 1494 1495 1497 1498 1500 1502 1504 1506 1507 1508 1510 1512 1513 1514 1515 1516 1516 1516 1516 1516 1516 1516 1515 1515 1514 1513 1511 1510 1508 1507 1505 1504 1503 1501 1500 1498 1497 1496 1494 1493 1492
1488 1489 1491 1492 1494 1496 1498 1500 1502 1504 1506 1507 1509 1511 1512 1513 1514 1515 1515 1516 1515 1515 1515 1514 1513 1512 1511 1510 1509 1507 1506 1504 1502 1501 1499 1498 1496 1495 1493 1492 1491 1490 1489
1485 1485 1487 1488 1490 1493 1495 1497 1500 1502 1504 1506 1508 1510 1511 1512 1513 1514 1514 1514 1514 1513 1513 1512 1511 1510 1509 1508 1506 1504 1502 1500 1498 1497 1495 1493 1492 1491 1490 1488 1487 1486 1485
1480 1481 1482 1483 1485 1488 1491 1494 1498 1500 1502 1504 1506 1508 1510 1511 1512 1512 1513 1512 1512 1512 1511 1510 1509 1507 1506 1505 1503 1501 1498 1496 1494 1492 1491 1490 1489 1488 1487 1485 1484 1483 1481
1475 1475 1477 1478 1480 1483 1486 1490 1494 1497 1499 1501 1504 1506 1508 1509 1510 1510 1511 1511 1511 1510 1509 1508 1506 1505 1503 1501 1499 1497 1495 1492 1490 1489 1487 1486 1486 1485 1484 1482 1481 1479 1477
1468 1469 1471 1473 1474 1477 1481 1485 1490 1493 1496 1499 1501 1503 1505 1506 1508 1509 1509 1509 1509 1508 1507 1505 1503 1501 1498 1496 1494 1493 1491 1488 1486 1485 1484 1484 1483 1482 1480 1479 1476 1474 1471
1461 1463 1465 1467 1469 1472 1476 1480 1485 1489 1492 1496 1498 1500 1502 1504 1505 1506 1507 1507 1507 1506 1504 1502 1500 1497 1494 1492 1491 1489 1487 1484 1483 1483 1482 1481 1480 1479 1477 1474 1472 1469 1466
1456 1458 1460 1462 1464 1467 1470 1474 1479 1484 1489 1492 1495 1498 1500 1502 1503 1504 1505 1505 1505 1503 1502 1499 1497 1495 1492 1489 1487 1484 1483 1482 1481 1480 1480 1479 1477 1475 1473 1470 1467 1463 1460
1451 1453 1455 1457 1460 1462 1466 1470 1475 1480 1485 1489 1492 1495 1497 1499 1501 1502 1503 1503 1502 1500 1498 1496 1494 1492 1490 1487 1485 1481 1480 1479 1478 1478 1477 1475 1472 1469 1467 1463 1460 1457 1453
1447 1449 1451 1453 1456 1458 1462 1467 1472 1478 1482 1486 1489 1492 1495 1497 1499 1500 1501 1500 1499 1498 1496 1494 1492 1490 1489 1487 1485 1484 1481 1477 1473 1468 1469 1467 1464 1461 1459 1455 1452 1449 1446
1442 1445 1447 1450 1452 1455 1459 1464 1469 1474 1478 1483 1487 1490 1493 1495 1497 1498 1498 1498 1497 1495 1493 1492 1490 1488 1487 1486 1484 1483 1482 1478 1473 1464 1460 1459 1457 1453 1451 1448 1445 1442 1438
1437 1440 1443 1446 1449 1453 1458 1463 1468 1472 1476 1480 1484 1488 1491 1493 1495 1495 1496 1495 1494 1493 1491 1490 1488 1487 1485 1483 1481 1479 1477 1475 1471 1465 1455 1449 1446 1445 1443 1440 1437 1434 1431
1431 1435 1439 1442 1446 1450 1456 1461 1466 1470 1474 1478 1482 1486 1489 1491 1492 1493 1493 1493 1492 1491 1489 1488 1487 1485 1483 1481 1478 1476 1473 1470 1467 1462 1453 1444 1438 1434 1433 1432 1430 1427 1424